isotime,frequency
2022-11-30 15:39:37.500,1657.5
2022-11-30 15:39:38.500,1657.5
2022-11-30 15:39:39.500,1657.25
2022-11-30 15:39:40.500,1657.25
2022-11-30 15:39:41.500,1657.0
2022-11-30 15:39:42.500,1657.0
2022-11-30 15:39:43.500,1656.75
2022-11-30 15:39:44.500,1656.75
2022-11-30 15:39:45.500,1656.5
2022-11-30 15:39:46.500,1656.5
2022-11-30 15:39:47.500,1656.25
2022-11-30 15:39:48.500,1656.25
2022-11-30 15:39:49.500,1656.0
2022-11-30 15:39:50.500,1656.0
2022-11-30 15:39:51.500,1655.75
2022-11-30 15:39:52.500,1655.75
2022-11-30 15:39:53.500,1655.5
2022-11-30 15:39:54.500,1655.5
2022-11-30 15:39:55.500,1655.25
2022-11-30 15:39:56.500,1655.25
2022-11-30 15:39:57.500,1655.0
2022-11-30 15:39:58.500,1655.0
2022-11-30 15:39:59.500,1654.75
2022-11-30 15:40:00.500,1654.75
2022-11-30 15:40:01.500,1654.5
2022-11-30 15:40:02.500,1654.5
2022-11-30 15:40:03.500,1654.0
2022-11-30 15:40:04.500,1654.25
2022-11-30 15:40:05.500,1654.0
2022-11-30 15:40:06.500,1654.0
2022-11-30 15:40:07.500,1653.75
2022-11-30 15:40:08.500,1653.75
2022-11-30 15:40:09.500,1653.5
2022-11-30 15:40:10.500,1653.5
2022-11-30 15:40:11.500,1653.25
2022-11-30 15:40:12.500,1653.25
2022-11-30 15:40:13.500,1652.75
2022-11-30 15:40:14.500,1653.0
2022-11-30 15:40:15.500,1653.0
2022-11-30 15:40:16.500,1652.75
2022-11-30 15:40:17.500,1652.75
2022-11-30 15:40:18.500,1652.5
2022-11-30 15:40:19.500,1652.25
2022-11-30 15:40:20.500,1652.25
2022-11-30 15:40:21.500,1652.0
2022-11-30 15:40:22.500,1652.0
2022-11-30 15:40:23.500,1651.75
2022-11-30 15:40:24.500,1651.75
2022-11-30 15:40:25.500,1651.25
2022-11-30 15:40:26.500,1651.5
2022-11-30 15:40:27.500,1651.5
2022-11-30 15:40:28.500,1651.25
2022-11-30 15:40:29.500,1651.25
2022-11-30 15:40:30.500,1651.0
2022-11-30 15:40:31.500,1651.0
2022-11-30 15:40:32.500,1650.75
2022-11-30 15:40:33.500,1650.5
2022-11-30 15:40:34.500,1650.5
2022-11-30 15:40:35.500,1650.5
2022-11-30 15:40:36.500,1650.25
2022-11-30 15:40:37.500,1650.25
2022-11-30 15:40:38.500,1650.0
2022-11-30 15:40:39.500,1650.0
2022-11-30 15:40:40.500,1649.75
2022-11-30 15:40:41.500,1649.75
2022-11-30 15:40:42.500,1649.5
2022-11-30 15:40:43.500,1649.25
2022-11-30 15:40:44.500,1649.25
2022-11-30 15:40:45.500,1649.25
2022-11-30 15:40:46.500,1649.0
2022-11-30 15:40:47.500,1649.0
2022-11-30 15:40:48.500,1648.75
2022-11-30 15:40:49.500,1648.75
2022-11-30 15:40:50.500,1648.5
2022-11-30 15:40:51.500,1648.5
2022-11-30 15:40:52.500,1648.25
2022-11-30 15:40:53.500,1648.25
2022-11-30 15:40:54.500,1648.0
2022-11-30 15:40:55.500,1648.0
2022-11-30 15:40:56.500,1647.75
2022-11-30 15:40:57.500,1647.75
2022-11-30 15:40:58.500,1647.5
2022-11-30 15:40:59.500,1647.5
2022-11-30 15:41:00.500,1647.25
2022-11-30 15:41:01.500,1647.25
2022-11-30 15:41:02.500,1647.0
2022-11-30 15:41:03.500,1647.0
2022-11-30 15:41:04.500,1646.75
2022-11-30 15:41:05.500,1646.75
2022-11-30 15:41:06.500,1646.5
2022-11-30 15:41:07.500,1646.5
2022-11-30 15:41:08.500,1646.25
2022-11-30 15:41:09.500,1646.25
2022-11-30 15:41:10.500,1646.0
2022-11-30 15:41:11.500,1646.0
2022-11-30 15:41:12.500,1645.75
2022-11-30 15:41:13.500,1645.75
2022-11-30 15:41:14.500,1645.5
2022-11-30 15:41:15.500,1645.5
2022-11-30 15:41:16.500,1645.25
2022-11-30 15:41:17.500,1645.25
2022-11-30 15:41:18.500,1645.0
2022-11-30 15:41:19.500,1645.0
2022-11-30 15:41:20.500,1644.75
2022-11-30 15:41:21.500,1644.75
2022-11-30 15:41:22.500,1644.5
2022-11-30 15:41:23.500,1644.5
2022-11-30 15:41:24.500,1644.25
2022-11-30 15:41:25.500,1644.25
2022-11-30 15:41:26.500,1644.0
2022-11-30 15:41:27.500,1644.0
2022-11-30 15:41:28.500,1643.75
2022-11-30 15:41:29.500,1643.75
2022-11-30 15:41:30.500,1643.5
2022-11-30 15:41:31.500,1643.5
2022-11-30 15:41:32.500,1643.25
2022-11-30 15:41:33.500,1643.25
2022-11-30 15:41:34.500,1643.0
2022-11-30 15:41:35.500,1643.0
2022-11-30 15:41:36.500,1642.75
2022-11-30 15:41:37.500,1642.75
2022-11-30 15:41:38.500,1642.5
2022-11-30 15:41:39.500,1642.5
2022-11-30 15:41:40.500,1642.0
2022-11-30 15:41:41.500,1642.25
2022-11-30 15:41:42.500,1642.0
2022-11-30 15:41:43.500,1642.0
2022-11-30 15:41:44.500,1641.75
2022-11-30 15:41:45.500,1641.75
2022-11-30 15:41:46.500,1641.5
2022-11-30 15:41:47.500,1641.5
2022-11-30 15:41:48.500,1641.25
2022-11-30 15:41:49.500,1641.25
2022-11-30 15:41:50.500,1640.75
2022-11-30 15:41:51.500,1641.0
2022-11-30 15:41:52.500,1640.75
2022-11-30 15:41:53.500,1640.75
2022-11-30 15:41:54.500,1640.5
2022-11-30 15:41:55.500,1640.5
2022-11-30 15:41:56.500,1640.25
2022-11-30 15:41:57.500,1640.25
2022-11-30 15:41:58.500,1640.0
2022-11-30 15:41:59.500,1640.0
2022-11-30 15:42:00.500,1639.5
2022-11-30 15:42:01.500,1639.75
2022-11-30 15:42:02.500,1639.75
2022-11-30 15:42:03.500,1639.5
2022-11-30 15:42:04.500,1639.25
2022-11-30 15:42:05.500,1639.25
2022-11-30 15:42:06.500,1639.0
2022-11-30 15:42:07.500,1639.0
2022-11-30 15:42:08.500,1638.75
2022-11-30 15:42:09.500,1638.75
2022-11-30 15:42:10.500,1638.25
2022-11-30 15:42:11.500,1638.5
2022-11-30 15:42:12.500,1638.25
2022-11-30 15:42:13.500,1638.25
2022-11-30 15:42:14.500,1638.0
2022-11-30 15:42:15.500,1638.0
2022-11-30 15:42:16.500,1637.75
2022-11-30 15:42:17.500,1637.75
2022-11-30 15:42:18.500,1637.5
2022-11-30 15:42:19.500,1637.5
2022-11-30 15:42:20.500,1637.0
2022-11-30 15:42:21.500,1637.25
2022-11-30 15:42:22.500,1637.25
2022-11-30 15:42:23.500,1637.0
2022-11-30 15:42:24.500,1636.75
2022-11-30 15:42:25.500,1636.75
2022-11-30 15:42:26.500,1636.5
2022-11-30 15:42:27.500,1636.5
2022-11-30 15:42:28.500,1636.25
2022-11-30 15:42:29.500,1636.25
2022-11-30 15:42:30.500,1635.75
2022-11-30 15:42:31.500,1636.0
2022-11-30 15:42:32.500,1636.0
2022-11-30 15:42:33.500,1635.75
2022-11-30 15:42:34.500,1635.5
2022-11-30 15:42:35.500,1635.5
2022-11-30 15:42:36.500,1635.25
2022-11-30 15:42:37.500,1635.25
2022-11-30 15:42:38.500,1635.0
2022-11-30 15:42:39.500,1635.0
2022-11-30 15:42:40.500,1634.5
2022-11-30 15:42:41.500,1634.75
2022-11-30 15:42:42.500,1634.75
2022-11-30 15:42:43.500,1634.5
2022-11-30 15:42:44.500,1634.25
2022-11-30 15:42:45.500,1634.25
2022-11-30 15:42:46.500,1634.0
2022-11-30 15:42:47.500,1634.0
2022-11-30 15:42:48.500,1633.75
2022-11-30 15:42:49.500,1633.75
2022-11-30 15:42:50.500,1633.5
2022-11-30 15:42:51.500,1633.5
2022-11-30 15:42:52.500,1633.25
2022-11-30 15:42:53.500,1633.25
2022-11-30 15:42:54.500,1633.0
2022-11-30 15:42:55.500,1633.0
2022-11-30 15:42:56.500,1632.75
2022-11-30 15:42:57.500,1632.75
2022-11-30 15:42:58.500,1632.25
2022-11-30 15:42:59.500,1632.5
2022-11-30 15:43:00.500,1632.5
2022-11-30 15:43:01.500,1632.25
2022-11-30 15:43:02.500,1632.0
2022-11-30 15:43:03.500,1632.0
2022-11-30 15:43:04.500,1631.75
2022-11-30 15:43:05.500,1631.75
2022-11-30 15:43:06.500,1631.5
2022-11-30 15:43:07.500,1631.5
2022-11-30 15:43:08.500,1631.0
2022-11-30 15:43:09.500,1631.25
2022-11-30 15:43:10.500,1631.25
2022-11-30 15:43:11.500,1631.0
2022-11-30 15:43:12.500,1630.75
2022-11-30 15:43:13.500,1630.75
2022-11-30 15:43:14.500,1630.5
2022-11-30 15:43:15.500,1630.5
2022-11-30 15:43:16.500,1630.25
2022-11-30 15:43:17.500,1630.25
2022-11-30 15:43:18.500,1630.0
2022-11-30 15:43:19.500,1630.0
2022-11-30 15:43:20.500,1629.75
2022-11-30 15:43:21.500,1629.75
2022-11-30 15:43:22.500,1629.5
2022-11-30 15:43:23.500,1629.5
2022-11-30 15:43:24.500,1629.25
2022-11-30 15:43:25.500,1629.25
2022-11-30 15:43:26.500,1628.75
2022-11-30 15:43:27.500,1629.0
2022-11-30 15:43:28.500,1628.75
2022-11-30 15:43:29.500,1628.75
2022-11-30 15:43:30.500,1628.5
2022-11-30 15:43:31.500,1628.5
2022-11-30 15:43:32.500,1628.25
2022-11-30 15:43:33.500,1628.25
2022-11-30 15:43:34.500,1628.0
2022-11-30 15:43:35.500,1628.0
2022-11-30 15:43:36.500,1627.5
2022-11-30 15:43:37.500,1627.75
2022-11-30 15:43:38.500,1627.5
2022-11-30 15:43:39.500,1627.5
2022-11-30 15:43:40.500,1627.25
2022-11-30 15:43:41.500,1627.25
2022-11-30 15:43:42.500,1627.0
2022-11-30 15:43:43.500,1627.0
2022-11-30 15:43:44.500,1626.5
2022-11-30 15:43:45.500,1626.75
2022-11-30 15:43:46.500,1626.5
2022-11-30 15:43:47.500,1626.5
2022-11-30 15:43:48.500,1626.25
2022-11-30 15:43:49.500,1626.25
2022-11-30 15:43:50.500,1626.0
2022-11-30 15:43:51.500,1626.0
2022-11-30 15:43:52.500,1625.75
2022-11-30 15:43:53.500,1625.75
2022-11-30 15:43:54.500,1625.25
2022-11-30 15:43:55.500,1625.5
2022-11-30 15:43:56.500,1625.25
2022-11-30 15:43:57.500,1625.25
2022-11-30 15:43:58.500,1625.0
2022-11-30 15:43:59.500,1625.0
2022-11-30 15:44:00.500,1624.75
2022-11-30 15:44:01.500,1624.75
2022-11-30 15:44:02.500,1624.5
2022-11-30 15:44:03.500,1624.5
2022-11-30 15:44:04.500,1624.25
2022-11-30 15:44:05.500,1624.25
2022-11-30 15:44:06.500,1624.0
2022-11-30 15:44:07.500,1624.0
2022-11-30 15:44:08.500,1623.75
2022-11-30 15:44:09.500,1623.75
2022-11-30 15:44:10.500,1623.5
2022-11-30 15:44:11.500,1623.5
2022-11-30 15:44:12.500,1623.25
2022-11-30 15:44:13.500,1623.25
2022-11-30 15:44:14.500,1623.0
2022-11-30 15:44:15.500,1623.0
2022-11-30 15:44:16.500,1622.75
2022-11-30 15:44:17.500,1622.75
2022-11-30 15:44:18.500,1622.5
2022-11-30 15:44:19.500,1622.5
2022-11-30 15:44:20.500,1622.25
2022-11-30 15:44:21.500,1622.25
2022-11-30 15:44:22.500,1622.0
2022-11-30 15:44:23.500,1622.0
2022-11-30 15:44:24.500,1621.75
2022-11-30 15:44:25.500,1621.75
2022-11-30 15:44:26.500,1621.5
2022-11-30 15:44:27.500,1621.5
2022-11-30 15:44:28.500,1621.25
2022-11-30 15:44:29.500,1621.25
2022-11-30 15:44:30.500,1621.0
2022-11-30 15:44:31.500,1621.0
2022-11-30 15:44:32.500,1620.75
2022-11-30 15:44:33.500,1620.75
2022-11-30 15:44:34.500,1620.5
2022-11-30 15:44:35.500,1620.5
2022-11-30 15:44:36.500,1620.25
2022-11-30 15:44:37.500,1620.25
2022-11-30 15:44:38.500,1620.0
2022-11-30 15:44:39.500,1620.0
2022-11-30 15:44:40.500,1619.75
2022-11-30 15:44:41.500,1619.75
2022-11-30 15:44:42.500,1619.5
2022-11-30 15:44:43.500,1619.25
2022-11-30 15:44:44.500,1619.25
2022-11-30 15:44:45.500,1619.25
2022-11-30 15:44:46.500,1619.0
2022-11-30 15:44:47.500,1619.0
2022-11-30 15:44:48.500,1618.75
2022-11-30 15:44:49.500,1618.75
2022-11-30 15:44:50.500,1618.5
2022-11-30 15:44:51.500,1618.25
2022-11-30 15:44:52.500,1618.25
2022-11-30 15:44:53.500,1618.25
2022-11-30 15:44:54.500,1618.0
2022-11-30 15:44:55.500,1618.0
2022-11-30 15:44:56.500,1617.75
2022-11-30 15:44:57.500,1617.75
2022-11-30 15:44:58.500,1617.5
2022-11-30 15:44:59.500,1617.25
2022-11-30 15:45:00.500,1617.25
2022-11-30 15:45:01.500,1617.25
2022-11-30 15:45:02.500,1617.0
2022-11-30 15:45:03.500,1617.0
2022-11-30 15:45:04.500,1616.75
2022-11-30 15:45:05.500,1616.75
2022-11-30 15:45:06.500,1616.5
2022-11-30 15:45:07.500,1616.5
2022-11-30 15:45:08.500,1616.25
2022-11-30 15:45:09.500,1616.25
2022-11-30 15:45:10.500,1615.75
2022-11-30 15:45:11.500,1616.0
2022-11-30 15:45:12.500,1616.0
2022-11-30 15:45:13.500,1615.75
2022-11-30 15:45:14.500,1615.75
2022-11-30 15:45:15.500,1615.5
2022-11-30 15:45:16.500,1615.5
2022-11-30 15:45:17.500,1615.25
2022-11-30 15:45:18.500,1615.25
2022-11-30 15:45:19.500,1614.75
2022-11-30 15:45:20.500,1615.0
2022-11-30 15:45:21.500,1615.0
2022-11-30 15:45:22.500,1614.75
2022-11-30 15:45:23.500,1614.5
2022-11-30 15:45:24.500,1614.5
2022-11-30 15:45:25.500,1614.25
2022-11-30 15:45:26.500,1614.25
2022-11-30 15:45:27.500,1614.25
2022-11-30 15:45:28.500,1614.0
2022-11-30 15:45:29.500,1614.0
2022-11-30 15:45:30.500,1613.75
2022-11-30 15:45:31.500,1613.75
2022-11-30 15:45:32.500,1613.5
2022-11-30 15:45:33.500,1613.5
2022-11-30 15:45:34.500,1613.25
2022-11-30 15:45:35.500,1613.25
2022-11-30 15:45:36.500,1612.75
2022-11-30 15:45:37.500,1613.0
2022-11-30 15:45:38.500,1613.0
2022-11-30 15:45:39.500,1612.75
2022-11-30 15:45:40.500,1612.75
2022-11-30 15:45:41.500,1612.5
2022-11-30 15:45:42.500,1612.5
2022-11-30 15:45:43.500,1612.25
2022-11-30 15:45:44.500,1612.25
2022-11-30 15:45:45.500,1612.0
2022-11-30 15:45:46.500,1612.0
2022-11-30 15:45:47.500,1611.75
2022-11-30 15:45:48.500,1611.75
2022-11-30 15:45:49.500,1611.5
2022-11-30 15:45:50.500,1611.5
2022-11-30 15:45:51.500,1611.0
2022-11-30 15:45:52.500,1611.25
2022-11-30 15:45:53.500,1611.25
2022-11-30 15:45:54.500,1611.0
2022-11-30 15:45:55.500,1611.0
2022-11-30 15:45:56.500,1610.75
2022-11-30 15:45:57.500,1610.75
2022-11-30 15:45:58.500,1610.5
2022-11-30 15:45:59.500,1610.5
2022-11-30 15:46:00.500,1610.25
2022-11-30 15:46:01.500,1610.25
2022-11-30 15:46:02.500,1610.0
2022-11-30 15:46:03.500,1610.0
2022-11-30 15:46:04.500,1609.75
2022-11-30 15:46:05.500,1609.75
2022-11-30 15:46:06.500,1609.5
2022-11-30 15:46:07.500,1609.5
2022-11-30 15:46:08.500,1609.5
2022-11-30 15:46:09.500,1609.25
2022-11-30 15:46:10.500,1609.25
2022-11-30 15:46:11.500,1609.0
2022-11-30 15:46:12.500,1609.0
2022-11-30 15:46:13.500,1608.75
2022-11-30 15:46:14.500,1608.75
2022-11-30 15:46:15.500,1608.25
2022-11-30 15:46:16.500,1608.5
2022-11-30 15:46:17.500,1608.5
2022-11-30 15:46:18.500,1608.25
2022-11-30 15:46:19.500,1608.0
2022-11-30 15:46:20.500,1608.0
2022-11-30 15:46:21.500,1607.75
2022-11-30 15:46:22.500,1607.75
2022-11-30 15:46:23.500,1607.75
2022-11-30 15:46:24.500,1607.5
2022-11-30 15:46:25.500,1607.5
2022-11-30 15:46:26.500,1607.25
2022-11-30 15:46:27.500,1607.25
2022-11-30 15:46:28.500,1607.0
2022-11-30 15:46:29.500,1607.0
2022-11-30 15:46:30.500,1606.75
2022-11-30 15:46:31.500,1606.75
2022-11-30 15:46:32.500,1606.75
2022-11-30 15:46:33.500,1606.5
2022-11-30 15:46:34.500,1606.25
2022-11-30 15:46:35.500,1606.25
2022-11-30 15:46:36.500,1606.0
2022-11-30 15:46:37.500,1606.0
2022-11-30 15:46:38.500,1606.0
2022-11-30 15:46:39.500,1605.75
2022-11-30 15:46:40.500,1605.75
2022-11-30 15:46:41.500,1605.5
2022-11-30 15:46:42.500,1605.5
2022-11-30 15:46:43.500,1605.25
2022-11-30 15:46:44.500,1605.25
2022-11-30 15:46:45.500,1605.0
2022-11-30 15:46:46.500,1605.0
2022-11-30 15:46:47.500,1605.0
2022-11-30 15:46:48.500,1604.75
2022-11-30 15:46:49.500,1604.5
2022-11-30 15:46:50.500,1604.5
2022-11-30 15:46:51.500,1604.25
2022-11-30 15:46:52.500,1604.25
2022-11-30 15:46:53.500,1604.25
2022-11-30 15:46:54.500,1604.0
2022-11-30 15:46:55.500,1604.0
2022-11-30 15:46:56.500,1603.75
2022-11-30 15:46:57.500,1603.75
2022-11-30 15:46:58.500,1603.5
2022-11-30 15:46:59.500,1603.5
2022-11-30 15:47:00.500,1603.25
2022-11-30 15:47:01.500,1603.25
2022-11-30 15:47:02.500,1603.25
2022-11-30 15:47:03.500,1603.0
2022-11-30 15:47:04.500,1603.0
2022-11-30 15:47:05.500,1602.75
2022-11-30 15:47:06.500,1602.5
2022-11-30 15:47:07.500,1602.5
2022-11-30 15:47:08.500,1602.5
2022-11-30 15:47:09.500,1602.25
2022-11-30 15:47:10.500,1602.25
2022-11-30 15:47:11.500,1602.0
2022-11-30 15:47:12.500,1602.0
2022-11-30 15:47:13.500,1601.75
2022-11-30 15:47:14.500,1601.75
2022-11-30 15:47:15.500,1601.5
2022-11-30 15:47:16.500,1601.5
2022-11-30 15:47:17.500,1601.25
2022-11-30 15:47:18.500,1601.25
2022-11-30 15:47:19.500,1601.0
2022-11-30 15:47:20.500,1601.0
2022-11-30 15:47:21.500,1600.75
2022-11-30 15:47:22.500,1600.75
2022-11-30 15:47:23.500,1600.75
2022-11-30 15:47:24.500,1600.5
2022-11-30 15:47:25.500,1600.5
2022-11-30 15:47:26.500,1600.25
2022-11-30 15:47:27.500,1600.25
2022-11-30 15:47:28.500,1600.0
2022-11-30 15:47:29.500,1600.0
2022-11-30 15:47:30.500,1599.75
2022-11-30 15:47:31.500,1599.75
2022-11-30 15:47:32.500,1599.5
2022-11-30 15:47:33.500,1599.5
2022-11-30 15:47:34.500,1599.25
2022-11-30 15:47:35.500,1599.25
2022-11-30 15:47:36.500,1599.0
2022-11-30 15:47:37.500,1599.0
2022-11-30 15:47:38.500,1599.0
2022-11-30 15:47:39.500,1598.75
2022-11-30 15:47:40.500,1598.75
2022-11-30 15:47:41.500,1598.5
2022-11-30 15:47:42.500,1598.5
2022-11-30 15:47:43.500,1598.25
2022-11-30 15:47:44.500,1598.25
2022-11-30 15:47:45.500,1598.0
2022-11-30 15:47:46.500,1598.0
2022-11-30 15:47:47.500,1597.75
2022-11-30 15:47:48.500,1597.75
2022-11-30 15:47:49.500,1597.5
2022-11-30 15:47:50.500,1597.5
2022-11-30 15:47:51.500,1597.25
2022-11-30 15:47:52.500,1597.25
2022-11-30 15:47:53.500,1596.75
2022-11-30 15:47:54.500,1597.0
2022-11-30 15:47:55.500,1597.0
2022-11-30 15:47:56.500,1596.75
2022-11-30 15:47:57.500,1596.75
2022-11-30 15:47:58.500,1596.5
2022-11-30 15:47:59.500,1596.5
2022-11-30 15:48:00.500,1596.25
2022-11-30 15:48:01.500,1596.25
2022-11-30 15:48:02.500,1596.0
2022-11-30 15:48:03.500,1596.0
2022-11-30 15:48:04.500,1595.75
2022-11-30 15:48:05.500,1595.75
2022-11-30 15:48:06.500,1595.5
2022-11-30 15:48:07.500,1595.5
2022-11-30 15:48:08.500,1595.5
2022-11-30 15:48:09.500,1595.25
2022-11-30 15:48:10.500,1595.25
2022-11-30 15:48:11.500,1595.0
2022-11-30 15:48:12.500,1594.75
2022-11-30 15:48:13.500,1594.75
2022-11-30 15:48:14.500,1594.75
2022-11-30 15:48:15.500,1594.5
2022-11-30 15:48:16.500,1594.5
2022-11-30 15:48:17.500,1594.25
2022-11-30 15:48:18.500,1594.25
2022-11-30 15:48:19.500,1594.0
2022-11-30 15:48:20.500,1594.0
2022-11-30 15:48:21.500,1593.5
2022-11-30 15:48:22.500,1593.75
2022-11-30 15:48:23.500,1593.5
2022-11-30 15:48:24.500,1593.5
2022-11-30 15:48:25.500,1593.25
2022-11-30 15:48:26.500,1593.25
2022-11-30 15:48:27.500,1593.0
2022-11-30 15:48:28.500,1593.0
2022-11-30 15:48:29.500,1593.0
2022-11-30 15:48:30.500,1592.75
2022-11-30 15:48:31.500,1592.75
2022-11-30 15:48:32.500,1592.5
2022-11-30 15:48:33.500,1592.5
2022-11-30 15:48:34.500,1592.25
2022-11-30 15:48:35.500,1592.25
2022-11-30 15:48:36.500,1592.0
2022-11-30 15:48:37.500,1592.0
2022-11-30 15:48:38.500,1591.75
2022-11-30 15:48:39.500,1591.75
2022-11-30 15:48:40.500,1591.5
2022-11-30 15:48:41.500,1591.5
2022-11-30 15:48:42.500,1591.0
2022-11-30 15:48:43.500,1591.25
2022-11-30 15:48:44.500,1591.25
2022-11-30 15:48:45.500,1591.0
2022-11-30 15:48:46.500,1591.0
2022-11-30 15:48:47.500,1590.75
2022-11-30 15:48:48.500,1590.5
2022-11-30 15:48:49.500,1590.5
2022-11-30 15:48:50.500,1590.5
2022-11-30 15:48:51.500,1590.25
2022-11-30 15:48:52.500,1590.25
2022-11-30 15:48:53.500,1590.0
2022-11-30 15:48:54.500,1590.0
2022-11-30 15:48:55.500,1589.75
2022-11-30 15:48:56.500,1589.75
2022-11-30 15:48:57.500,1589.5
2022-11-30 15:48:58.500,1589.5
2022-11-30 15:48:59.500,1589.25
2022-11-30 15:49:00.500,1589.25
2022-11-30 15:49:01.500,1589.0
2022-11-30 15:49:02.500,1589.0
2022-11-30 15:49:03.500,1589.25
2022-11-30 15:49:04.500,1588.75
2022-11-30 15:49:05.500,1588.75
2022-11-30 15:49:06.500,1588.5
2022-11-30 15:49:07.500,1588.25
2022-11-30 15:49:08.500,1588.25
2022-11-30 15:49:09.500,1588.25
2022-11-30 15:49:10.500,1588.0
2022-11-30 15:49:11.500,1588.0
2022-11-30 15:49:12.500,1587.75
2022-11-30 15:49:13.500,1587.75
2022-11-30 15:49:14.500,1587.5
2022-11-30 15:49:15.500,1587.5
2022-11-30 15:49:16.500,1587.25
2022-11-30 15:49:17.500,1587.25
2022-11-30 15:49:18.500,1587.0
2022-11-30 15:49:19.500,1587.0
2022-11-30 15:49:20.500,1586.75
2022-11-30 15:49:21.500,1586.75
2022-11-30 15:49:22.500,1586.5
2022-11-30 15:49:23.500,1586.5
2022-11-30 15:49:24.500,1586.5
2022-11-30 15:49:25.500,1586.25
2022-11-30 15:49:26.500,1586.25
2022-11-30 15:49:27.500,1586.0
2022-11-30 15:49:28.500,1585.75
2022-11-30 15:49:29.500,1585.75
2022-11-30 15:49:30.500,1585.75
2022-11-30 15:49:31.500,1585.5
2022-11-30 15:49:32.500,1585.5
2022-11-30 15:49:33.500,1585.25
2022-11-30 15:49:34.500,1585.25
2022-11-30 15:49:35.500,1585.0
2022-11-30 15:49:36.500,1585.0
2022-11-30 15:49:37.500,1584.5
2022-11-30 15:49:38.500,1584.75
2022-11-30 15:49:39.500,1584.5
2022-11-30 15:49:40.500,1584.5
2022-11-30 15:49:41.500,1584.25
2022-11-30 15:49:42.500,1584.25
2022-11-30 15:49:43.500,1584.25
2022-11-30 15:49:44.500,1584.0
2022-11-30 15:49:45.500,1584.0
2022-11-30 15:49:46.500,1583.75
2022-11-30 15:49:47.500,1583.75
2022-11-30 15:49:48.500,1583.5
2022-11-30 15:49:49.500,1583.5
2022-11-30 15:49:50.500,1583.25
2022-11-30 15:49:51.500,1583.25
2022-11-30 15:49:52.500,1583.0
2022-11-30 15:49:53.500,1583.0
2022-11-30 15:49:54.500,1582.75
2022-11-30 15:49:55.500,1582.75
2022-11-30 15:49:56.500,1582.5
2022-11-30 15:49:57.500,1582.5
2022-11-30 15:49:58.500,1582.25
2022-11-30 15:49:59.500,1582.25
2022-11-30 15:50:00.500,1582.0
2022-11-30 15:50:01.500,1582.0
2022-11-30 15:50:02.500,1581.75
2022-11-30 15:50:03.500,1581.75
2022-11-30 15:50:04.500,1581.75
2022-11-30 15:50:05.500,1581.5
2022-11-30 15:50:06.500,1581.5
2022-11-30 15:50:07.500,1581.25
2022-11-30 15:50:08.500,1581.25
2022-11-30 15:50:09.500,1581.0
2022-11-30 15:50:10.500,1581.0
2022-11-30 15:50:11.500,1580.75
2022-11-30 15:50:12.500,1580.75
2022-11-30 15:50:13.500,1580.5
2022-11-30 15:50:14.500,1580.5
2022-11-30 15:50:15.500,1580.25
2022-11-30 15:50:16.500,1580.25
2022-11-30 15:50:17.500,1580.0
2022-11-30 15:50:18.500,1580.0
2022-11-30 15:50:19.500,1579.75
2022-11-30 15:50:20.500,1579.75
2022-11-30 15:50:21.500,1579.5
2022-11-30 15:50:22.500,1579.5
2022-11-30 15:50:23.500,1579.5
2022-11-30 15:50:24.500,1579.25
2022-11-30 15:50:25.500,1579.25
2022-11-30 15:50:26.500,1579.0
2022-11-30 15:50:27.500,1579.0
2022-11-30 15:50:28.500,1578.75
2022-11-30 15:50:29.500,1578.75
2022-11-30 15:50:30.500,1578.5
2022-11-30 15:50:31.500,1578.5
2022-11-30 15:50:32.500,1578.25
2022-11-30 15:50:33.500,1578.25
2022-11-30 15:50:34.500,1578.0
2022-11-30 15:50:35.500,1578.0
2022-11-30 15:50:36.500,1577.75
2022-11-30 15:50:37.500,1577.75
2022-11-30 15:50:38.500,1577.5
2022-11-30 15:50:39.500,1577.5
2022-11-30 15:50:40.500,1577.25
2022-11-30 15:50:41.500,1577.25
2022-11-30 15:50:42.500,1576.75
2022-11-30 15:50:43.500,1577.0
2022-11-30 15:50:44.500,1577.0
2022-11-30 15:50:45.500,1576.75
2022-11-30 15:50:46.500,1576.5
2022-11-30 15:50:47.500,1576.5
2022-11-30 15:50:48.500,1576.5
2022-11-30 15:50:49.500,1576.25
2022-11-30 15:50:50.500,1576.25
2022-11-30 15:50:51.500,1576.0
2022-11-30 15:50:52.500,1576.0
2022-11-30 15:50:53.500,1575.75
2022-11-30 15:50:54.500,1575.75
2022-11-30 15:50:55.500,1575.5
2022-11-30 15:50:56.500,1575.5
2022-11-30 15:50:57.500,1575.25
2022-11-30 15:50:58.500,1575.25
2022-11-30 15:50:59.500,1575.0
2022-11-30 15:51:00.500,1575.0
2022-11-30 15:51:01.500,1574.5
2022-11-30 15:51:02.500,1574.75
2022-11-30 15:51:03.500,1574.75
2022-11-30 15:51:04.500,1574.5
2022-11-30 15:51:05.500,1574.25
2022-11-30 15:51:06.500,1574.25
2022-11-30 15:51:07.500,1574.25
2022-11-30 15:51:08.500,1574.0
2022-11-30 15:51:09.500,1574.0
2022-11-30 15:51:10.500,1573.75
2022-11-30 15:51:11.500,1573.75
2022-11-30 15:51:12.500,1573.5
2022-11-30 15:51:13.500,1573.5
2022-11-30 15:51:14.500,1573.25
2022-11-30 15:51:15.500,1573.25
2022-11-30 15:51:16.500,1573.0
2022-11-30 15:51:17.500,1573.0
2022-11-30 15:51:18.500,1572.75
2022-11-30 15:51:19.500,1572.75
2022-11-30 15:51:20.500,1572.5
2022-11-30 15:51:21.500,1572.5
2022-11-30 15:51:22.500,1572.25
2022-11-30 15:51:23.500,1572.25
2022-11-30 15:51:24.500,1572.0
2022-11-30 15:51:25.500,1572.0
2022-11-30 15:51:26.500,1571.5
2022-11-30 15:51:27.500,1571.75
2022-11-30 15:51:28.500,1571.75
2022-11-30 15:51:29.500,1571.5
2022-11-30 15:51:30.500,1571.25
2022-11-30 15:51:31.500,1571.25
2022-11-30 15:51:32.500,1571.25
2022-11-30 15:51:33.500,1571.0
2022-11-30 15:51:34.500,1571.0
2022-11-30 15:51:35.500,1570.75
2022-11-30 15:51:36.500,1570.75
2022-11-30 15:51:37.500,1570.5
2022-11-30 15:51:38.500,1570.5
2022-11-30 15:51:39.500,1570.25
2022-11-30 15:51:40.500,1570.25
2022-11-30 15:51:41.500,1570.0
2022-11-30 15:51:42.500,1570.0
2022-11-30 15:51:43.500,1569.75
2022-11-30 15:51:44.500,1569.75
2022-11-30 15:51:45.500,1569.5
2022-11-30 15:51:46.500,1569.5
2022-11-30 15:51:47.500,1569.25
2022-11-30 15:51:48.500,1569.25
2022-11-30 15:51:49.500,1569.0
2022-11-30 15:51:50.500,1569.0
2022-11-30 15:51:51.500,1569.0
2022-11-30 15:51:52.500,1568.75
2022-11-30 15:51:53.500,1568.5
2022-11-30 15:51:54.500,1568.5
2022-11-30 15:51:55.500,1568.5
2022-11-30 15:51:56.500,1568.25
2022-11-30 15:51:57.500,1568.25
2022-11-30 15:51:58.500,1568.0
2022-11-30 15:51:59.500,1568.0
2022-11-30 15:52:00.500,1567.75
2022-11-30 15:52:01.500,1567.75
2022-11-30 15:52:02.500,1567.5
2022-11-30 15:52:03.500,1567.5
2022-11-30 15:52:04.500,1567.25
2022-11-30 15:52:05.500,1567.25
2022-11-30 15:52:06.500,1567.0
2022-11-30 15:52:07.500,1567.0
2022-11-30 15:52:08.500,1566.75
2022-11-30 15:52:09.500,1566.75
2022-11-30 15:52:10.500,1566.5
2022-11-30 15:52:11.500,1566.5
2022-11-30 15:52:12.500,1566.25
2022-11-30 15:52:13.500,1566.25
2022-11-30 15:52:14.500,1565.75
2022-11-30 15:52:15.500,1566.0
2022-11-30 15:52:16.500,1566.0
2022-11-30 15:52:17.500,1565.75